Regional Weather Roundup
Issued by NWS Northern Indiana

Home | Current Version | Previous Version | Graphics & Text | Print | Product List | Glossary On
Versions: 1 2 3 4 5 6 7 8 9 10 11 12 13 14 15 16 17 18 19 20 21 22 23 24 25 26 27 28 29 30 31 32 33 34 35 36 37 38 39 40 41 42 43 44 45 46 47 48 49 50
000
ASUS43 KIWX 250100
RWRIWX

KIWX WEATHER ROUNDUP
NATIONAL WEATHER SERVICE NORTHERN INDIANA
900 PM EDT SUN JUL 24 2016

NOTE: "FAIR" INDICATES FEW OR NO CLOUDS BELOW 12,000 FEET WITH NO
SIGNIFICANT WEATHER AND/OR OBSTRUCTIONS TO VISIBILITY.

* THESE STATIONS ARE NOT UNDER NWS QUALITY CONTROL. THEY ALSO MAY NOT
  REPORT WEATHER SUCH AS PRECIPITATION OR FOG.

INZ001>027-250200-
NORTHERN INDIANA

CITY           SKY/WX    TMP DP  RH WIND       PRES   REMARKS
GARY*          MOCLDY    90 N/A N/A MISG      29.90R
KNOX*          CLEAR     82  72  69 SW6       29.90R
SOUTH BEND     CLEAR     84  77  79 SW8       29.89S
GOSHEN         CLEAR     84  76  76 SW8       29.90R
MONTICELLO*    CLEAR     85  74  71 SW6       29.91R
WARSAW*        CLEAR     84  77  79 CALM      29.91R
ANGOLA*          N/A     84  79  84 SW8       29.91R HX  96
FORT WAYNE     MOCLDY    84  75  74 S7        29.92S
PERU/GRISSOM   CLEAR     83  76  79 SW8       29.91S

$$
INZ028>050-250200-
CENTRAL INDIANA

CITY           SKY/WX    TMP DP  RH WIND       PRES   REMARKS
LAFAYETTE      CLEAR     84  78  82 SW6       29.91R HX  95
KOKOMO*        CLEAR     84  73  70 SW7       29.93S
MUNCIE*        CLEAR     88  76  67 SW6       29.94F HX  99
INDIANAPOLIS   MOCLDY    85  75  72 SW10      29.94F

$$
MIZ043>046-050>051-056>058-064>065-071>073-077>080-250200-
SOUTHWEST LOWER MICHIGAN

CITY           SKY/WX    TMP DP  RH WIND       PRES   REMARKS
BATTLE CREEK   CLEAR     80  77  90 SW8       29.89S
BENTON HARBOR  CLOUDY    86  77  74 SW7       29.86R HX  97
COLDWATER*     CLEAR     81  77  88 CALM      29.91R
HOLLAND        CLOUDY    85  77  77 SW13      29.85S HX  95
GRAND RAPIDS   CLOUDY    84  76  76 S12       29.85S
KALAMAZOO      CLEAR     83  76  79 S8        29.88R
STURGIS*       CLEAR     82  76  83 S5        29.89S
THREE RIVERS*  FAIR      83  76  77 SW5       29.89S

$$
OHZ001>008-015>018-024>025-250200-
NORTHWEST OHIO

CITY           SKY/WX    TMP DP  RH WIND       PRES   REMARKS
DEFIANCE       CLEAR     85  74  69 S8        29.90F
FINDLAY        PTCLDY    83  71  67 S8        29.92F
TOLEDO EXPRESS PTCLDY    80  76  87 SE5       29.90F
TOLEDO METCALF CLOUDY    81  76  84 SE6       29.92F
LIMA           CLEAR     81  75  82 S6        29.94F

$$
AND FOR LAKE MICHIGAN COASTAL AND OPEN LAKE BUOY OBSERVATIONS

STATION/POSITION TEMP    WIND        PRES    VSBY  WAVE
                 AIR SEA DIR/SP/G                  HT/PER
                 (F)     (DEG/KT/KT) (MB)    (MI)  (FT/S)
CALUMET HARBOR    84                   N/A
MICHIGAN CITY     86     180/ 10/ 11   N/A
BURNS HARBOR      80     280/ 36     1012.9R
SAINT JOSEPH      87     200/  6/ 11 1011.2F
SOUTH LAKE BUOY   76 72  160/ 10/ 12 1008.8          2/ 4
4 MI NW BRIDGMAN  80 74  190/ 10/ 14 1010.3F         2/ 3
MICHIGAN CITY     81 74  210/ 10/ 14   N/A           1/ 3

$$
&&



USA.gov is the U.S. government's official web portal to all federal, state and local government web resources and services.